NOAA 16 DEB, 41513

Orbit data source: Space-Track

NOAA 16 DEB, 41513 is space debris in SSO originally from a launch on Thu, 21 Sep 2000 UTC launched from the Air Force Western Test Range (AFWTR). Debris objects in space refer to the collection of defunct objects orbiting the Earth. Examples of debris include non-operational satellites, rocket bodies, and fragments generated from explosions, collisions, or faulty payload assembly.

Loading next visibility...
Identifier
41513, 2000-055MM
Orbit
SSO
Country
Flag of USUS
Related business
Manufacturer
Unknown
Mission
Spacecraft
Bus & Motor
Unknown
Mass
Unknown
Launch date (UTC)
2000-09-21 (26 years ago)
Launch vehicle
Unknown
Launch site
Air Force Western Test Range (AFWTR)
Object type
Payload
Rocket body
Debris
Shape & HBR
Unknown shape, 0.1 m
Radar Cross Section
Medium (>0.1 m² and <1 m²)

Expand to show TLE details & history
Last TLE update: 1 week ago

TLE from 1 week ago
0 NOAA 16 DEB
1 41513U 00055MM  26166.75862986  .00002790  00000-0  13555-2 0  9995
2 41513  98.7370 167.7514 0048691 290.6423  68.9535 14.18471296524678
Epoch: 2026-06-15T18:12Z
TLE epoch observation values (Epoch: 2026-06-15T18:12:25.619Z)
Latitude
-0.00006°
Longitude
-9.39575°
Altitude
820.98 km
Speed
7.449 km/s
True Right ascension
11h 11m 00s
True Declination
0° 00' 00"
Sunlit
Object was in daylight at epoch
Visualization orbit readout
Latitude
Unknown
Longitude
Unknown
Altitude
Unknown
Speed
Unknown
Apparent Right ascension
Unknown
Apparent Declination
Unknown
Sunlit
N/A
Visualization observer readout
Local Sidereal Time
21:36:31
Azimuth
Unknown
Elevation
Unknown
Doppler factor
Unknown
Orbital elements
Apogee altitude
862.775 km
Perigee altitude
792.603 km
Semi-major axis
7,205.826 km
Eccentricity
0.00487
Inclination
98.737°
RAAN
167.7514°
Arg. of periapsis
290.6423°
True anomaly
69.47537°
Mean anomaly
68.9535°
Eccentric anomaly
69.21432°
Mean motion
3.54828 °/min
Orbital period
101.46 mins
BSTAR
0.0013555
Loading maneuver chart data...
Computing Atmospheric mass density...
Loading historical data...
Loading historical data...
Loading historical data...
Loading historical data...
Loading historical data...
Loading historical data...
Loading historical data...

Documentation

Showing up to 5 results
|